Terminalur

Vevmynd ímóti Terminalinum

Ímóti Miđvági Ímóti Sřrvági


Veđriđ á flogvřllinum (metar):

EKVG 171720Z AUTO 13014KT 9999NDV OVC011/// 09/07 Q1029

METAR / TAF frá DMI fyri Vágar                      Veđurtíđindi frá Vága Floghavn

Atlantic Airways

Atlantic Airways heimasíđa

Tíđindi    .

26. januar 2015
Áheitan viđvíkjandi lasaraljós

Veđriđ

Kunning

Vevmyndir

Terminalur